EW5822 Weather Reports


time (UTC)temp
C
wind
direction
speed
KPH
gust
KPH
rain 1hr
cm
rain 24hr
cm
rain mn
cm
humidity
%
barometer
mb
20260504234713 27 168 11.3 19.3 0.00 0.00 0.00 37 999.8
20260504233603 27 132 4.8 6.4 0.00 0.00 0.00 38 999.8
20260504232913 27 132 4.8 6.4 0.00 0.00 0.00 32 999.9
20260504232015 28 132 3.2 6.4 0.00 0.00 0.00 34 999.9
20260504231113 28 131 6.4 11.3 0.00 0.00 0.00 33 999.8
20260504230215 28 129 6.4 12.9 0.00 0.00 0.00 32 999.9
20260504225617 28 123 6.4 12.9 0.00 0.00 0.00 31 999.8
20260504224503 28 64 6.4 12.9 0.00 0.00 0.00 30 999.7
20260504223603 28 68 4.8 12.9 0.00 0.00 0.00 26 999.7
20260504222914 29 62 8.0 14.5 0.00 0.00 0.00 25 999.6
20260504222016 29 57 6.4 16.1 0.00 0.00 0.00 26 999.5
20260504221113 28 137 8.0 12.9 0.00 0.00 0.00 25 999.5
20260504220004 29 133 11.3 14.5 0.00 0.00 0.00 27 999.5
20260504215403 30 107 9.7 14.5 0.00 0.00 0.00 26 999.5
20260504214715 30 80 9.7 14.5 0.00 0.00 0.00 25 999.6
20260504213603 30 158 3.2 12.9 0.00 0.00 0.00 25 999.7
20260504212914 30 185 6.4 12.9 0.00 0.00 0.00 26 999.7
20260504211803 30 157 3.2 9.7 0.00 0.00 0.00 29 999.7
20260504211114 30 115 4.8 9.7 0.00 0.00 0.00 24 999.8
20260504210216 30 179 4.8 11.3 0.00 0.00 0.00 28 999.9
20260504205613 30 299 4.8 14.5 0.00 0.00 0.00 24 1000.0
20260504204503 30 240 4.8 8.0 0.00 0.00 0.00 26 1000.3
20260504203603 29 228 3.2 8.0 0.00 0.00 0.00 25 1000.4
20260504202703 29 266 6.4 14.5 0.00 0.00 0.00 25 1000.4
20260504201803 29 284 8.0 14.5 0.00 0.00 0.00 28 1000.5
20260504201115 29 278 6.4 14.5 0.00 0.00 0.00 29 1000.5
20260504200003 29 259 6.4 14.5 0.00 0.00 0.00 30 1000.7
20260504195403 28 275 8.0 14.5 0.00 0.00 0.00 28 1000.7
20260504194716 29 303 4.8 11.3 0.00 0.00 0.00 33 1000.7
20260504193813 28 303 6.4 14.5 0.00 0.00 0.00 28 1000.7
20260504192703 29 360 4.8 9.7 0.00 0.00 0.00 27 1000.8
20260504192013 29 355 4.8 11.3 0.00 0.00 0.00 29 1000.8
20260504191115 28 344 9.7 19.3 0.00 0.00 0.00 29 1000.8
20260504190213 28 330 11.3 24.1 0.00 0.00 0.00 30 1000.8
20260504185403 29 327 9.7 20.9 0.00 0.00 0.00 28 1000.8
20260504184717 28 293 8.0 19.3 0.00 0.00 0.00 31 1000.8
20260504183814 29 332 14.5 27.4 0.00 0.00 0.00 26 1000.9
20260504182916 29 319 14.5 25.7 0.00 0.00 0.00 28 1000.9
20260504181803 29 347 17.7 32.2 0.00 0.00 0.00 28 1000.8
20260504180903 29 348 11.3 17.7 0.00 0.00 0.00 25 1000.9
20260504180213 29 318 19.3 30.6 0.00 0.00 0.00 30 1000.9
20260504175403 29 338 16.1 27.4 0.00 0.00 0.00 27 1001.0
20260504174503 28 336 16.1 27.4 0.00 0.00 0.00 27 1000.9
20260504173815 28 335 17.7 27.4 0.00 0.00 0.00 28 1001.0
20260504172703 29 332 19.3 29.0 0.00 0.00 0.00 30 1001.0
20260504171803 28 5 16.1 25.7 0.00 0.00 0.00 29 1001.1
20260504171117 28 7 17.7 25.7 0.00 0.00 0.00 34 1001.2
20260504150903 21 228 8.0 12.9 0.00 0.00 0.00 49 1001.8
20260504150215 21 222 8.0 14.5 0.00 0.00 0.00 48 1001.8
20260504140903 19 201 9.7 14.5 0.00 0.00 0.00 57 1001.8
20260504140216 18 199 9.7 12.9 0.00 0.00 0.00 58 1001.8
20260504081803 13 67 11.3 14.5 0.00 0.00 0.00 70 1002.3
20260504080903 13 48 9.7 14.5 0.00 0.00 0.00 71 1002.3
20260504080214 12 39 11.3 14.5 0.00 0.00 0.00 73 1002.6
20260504070215 15 60 16.1 19.3 0.00 0.00 0.00 68 1002.9
20260504050216 18 75 11.3 17.7 0.00 0.00 0.00 56 1004.4
20260504045404 19 75 12.9 19.3 0.00 0.00 0.00 54 1004.6
20260504044715 20 78 14.5 24.1 0.00 0.00 0.00 52 1004.6
20260504043603 19 96 16.1 19.3 0.00 0.00 0.00 54 1004.5
20260504042703 20 91 17.7 27.4 0.00 0.00 0.00 52 1004.6
20260504041803 21 109 20.9 37.0 0.00 0.00 0.00 49 1004.6
20260504040903 20 142 12.9 24.1 0.00 0.00 0.00 50 1004.8
20260504040003 20 141 4.8 12.9 0.00 0.00 0.00 51 1004.8
20260504035614 20 102 6.4 19.3 0.00 0.00 0.00 50 1004.8
20260504034503 20 90 19.3 27.4 0.00 0.00 0.00 49 1004.8
20260504033603 20 89 19.3 27.4 0.00 0.00 0.00 50 1004.6
20260504032703 20 91 20.9 27.4 0.00 0.00 0.00 51 1004.9
20260504032013 20 94 19.3 24.1 0.00 0.00 0.00 50 1005.1
20260504031115 21 89 16.1 22.5 0.00 0.00 0.00 49 1005.3
20260504030004 21 77 14.5 19.3 0.00 0.00 0.00 51 1005.3
20260504025403 21 67 12.9 16.1 0.00 0.00 0.00 51 1005.4
20260504024503 21 73 14.5 17.7 0.00 0.00 0.00 50 1005.4
20260504023814 21 64 12.9 17.7 0.00 0.00 0.00 49 1005.4
20260504022916 21 62 16.1 20.9 0.00 0.00 0.00 49 1005.4
20260504021803 21 56 16.1 19.3 0.00 0.00 0.00 49 1005.3
20260504020903 20 34 8.0 14.5 0.00 0.00 0.00 50 1005.7
20260504020213 21 60 9.7 14.5 0.00 0.00 0.00 50 1005.8
20260504015403 21 57 9.7 14.5 0.00 0.00 0.00 48 1005.5
20260504014503 21 13 9.7 14.5 0.00 0.00 0.00 49 1005.5
20260504013603 21 62 11.3 16.1 0.00 0.00 0.00 47 1005.1
20260504012917 22 71 11.3 16.1 0.00 0.00 0.00 46 1004.9
20260504011803 22 72 11.3 16.1 0.00 0.00 0.00 45 1004.8
20260504011117 22 71 11.3 16.1 0.00 0.00 0.00 44 1004.8
20260504010004 22 86 12.9 19.3 0.00 0.00 0.00 44 1004.9
20260504005615 22 84 12.9 19.3 0.00 0.00 0.00 45 1004.9
20260504004713 23 79 9.7 14.5 0.00 0.00 0.00 45 1005.2
20260504003815 23 75 11.3 16.1 0.00 0.00 0.00 44 1005.3
20260504002912 23 72 9.7 16.1 0.00 0.00 0.00 44 1005.4
20260504002015 24 61 9.7 14.5 0.00 0.00 0.00 41 1005.7
20260504000903 24 77 11.3 16.1 0.00 0.00 0.00 42 1005.6
20260504000215 25 79 11.3 17.7 0.00 0.00 0.00 41 1005.8
20260503235616 25 74 11.3 17.7 0.00 0.00 0.00 40 1005.9